Weather in Chermoz

Russia / Perm Krai     58°47′03″N   56°09′02″E
temp.,
°C
wind,
m/s
gust,
m/s
humid.,
%
clouds,
%
prec.,
mm/h
press.,
hPa
HPBL,
m
3 march, wed
wed323:00−7s5895100 2.5 994222
02:00−6s4595100 0.2 99380
05:00−7sw449798 0.4 99331
08:00−9wsw449798 0.1 99340
11:00−6wsw469499 0.3 995247
14:00−3w4589100 0.3 995475
17:00−2w4585100 0.3 996633
20:00−6w2293100 0.2 99621
4 march, thu
thu423:00−7wnw3395100 0.3 99628
02:00−10wsw349296 0.0 99521
05:00−12wsw349595 0.0 99525
08:00−12sw449699 0.1 99576
11:00−10sw579299 0.1 995272
14:00−7ssw5789100 0.1 994446
17:00−6s4790100 0.1 993217
20:00−7s469597 0.1 99298
5 march, fri
fri523:00−8sse349598 0.3 99226
02:00−9sse2296100 0.3 99221
05:00−9wsw129598 0.4 99421
08:00−9wnw3496100 0.3 99652
11:00−13wnw239582 0.4 99828
14:00−9w128878 0.0 999220
17:00−9wsw119383 0.1 100024
20:00−11nnw3394100 0.1 100121
6 march, sat
sat623:00−15nw3494100 0.1 100321
02:00−18wnw349649 0.0 100520
05:00−18w339670 0.0 100729
08:00−17wsw349699 0.1 100890
11:00−16wsw359296 0.3 1009240
14:00−13wsw248536 0.0 1008297
17:00−13ssw338835 0.0 100727
20:00−12s459396 0.1 100781
7 march, sun
sun723:00−15ssw559578 0.1 100745
02:00−16w349584 0.0 100632
05:00−19wnw349690 0.1 100749
08:00−23w239759 0.0 100820
11:00−21sw229430 0.0 100879
14:00−16ssw348750 0.0 1008261
17:00−13ssw478975 0.1 1008210
20:00−14s4593100 0.1 100881